GLD1620 SBPA-SBKP

Flight info

Callsign GLD1620
Flight time 1h 42m
Altitude 37000
Route VASE2B PENSO UZ132 EDRAT UBKU2A
Aircraft A20N/M-SDE2E3FGHIRWXY/LB1

Departure

Time 2026-04-27 19:54
Airport Porto Alegre-Salgado Filho International Airport (SBPA)

Arrival

Time 2026-04-27 21:36
Airport Viracopos International Airport (SBKP)
Time Latitude Longitude Altitude Speed Heading
2026-04-27 19:41 -29.99084 -51.17679 19 ft 0 kts 343°
2026-04-27 19:47 -29.99090 -51.17677 19 ft 4 kts 344°
2026-04-27 19:47 -29.99116 -51.17669 19 ft 4 kts 349°
2026-04-27 19:47 -29.99143 -51.17666 21 ft 4 kts
2026-04-27 19:47 -29.99165 -51.17673 22 ft 4 kts 66°
2026-04-27 19:48 -29.99168 -51.17684 22 ft 1 kts 94°
2026-04-27 19:48 -29.99168 -51.17685 22 ft 0 kts 94°
2026-04-27 19:49 -29.99168 -51.17675 22 ft 7 kts 94°
2026-04-27 19:50 -29.99175 -51.17577 19 ft 17 kts 95°
2026-04-27 19:50 -29.99178 -51.17476 19 ft 17 kts 89°
2026-04-27 19:50 -29.99234 -51.17391 19 ft 14 kts 155°
2026-04-27 19:50 -29.99269 -51.17283 19 ft 17 kts 91°
2026-04-27 19:51 -29.99271 -51.17121 19 ft 23 kts 92°
2026-04-27 19:51 -29.99273 -51.16835 19 ft 30 kts 90°
2026-04-27 19:51 -29.99274 -51.16663 19 ft 33 kts 90°
2026-04-27 19:51 -29.99288 -51.16311 19 ft 29 kts 92°
2026-04-27 19:52 -29.99332 -51.16238 19 ft 13 kts 176°
2026-04-27 19:52 -29.99437 -51.16223 23 ft 16 kts 159°
2026-04-27 19:52 -29.99484 -51.16120 23 ft 18 kts 103°
2026-04-27 19:52 -29.99456 -51.16000 21 ft 13 kts 70°
2026-04-27 19:53 -29.99483 -51.16000 21 ft 6 kts 253°
2026-04-27 19:53 -29.99475 -51.16452 19 ft 110 kts 271°
2026-04-27 19:53 -29.99450 -51.17680 278 ft 174 kts 271°
2026-04-27 19:54 -29.99400 -51.19155 808 ft 179 kts 272°
2026-04-27 19:54 -29.99354 -51.20518 1278 ft 168 kts 274°
2026-04-27 19:54 -29.99288 -51.21968 1834 ft 199 kts 274°
2026-04-27 19:54 -29.99220 -51.23502 2134 ft 182 kts 272°
2026-04-27 19:55 -29.99062 -51.25020 2664 ft 193 kts 286°
2026-04-27 19:55 -29.98438 -51.26437 3681 ft 208 kts 303°
2026-04-27 19:55 -29.97309 -51.27574 5057 ft 218 kts 325°
2026-04-27 19:55 -29.95848 -51.28134 6443 ft 228 kts 348°
2026-04-27 19:56 -29.94209 -51.28113 7609 ft 243 kts 356°
2026-04-27 19:56 -29.92515 -51.28017 8688 ft 256 kts 355°
2026-04-27 19:56 -29.90668 -51.27924 9724 ft 271 kts 354°
2026-04-27 19:56 -29.88739 -51.27832 10938 ft 277 kts 353°
2026-04-27 19:57 -29.86749 -51.27750 11792 ft 297 kts 353°
2026-04-27 19:57 -29.84684 -51.27667 12894 ft 303 kts 353°
2026-04-27 19:57 -29.82495 -51.27579 13881 ft 317 kts 353°
2026-04-27 19:57 -29.80263 -51.27488 14861 ft 324 kts 353°
2026-04-27 19:58 -29.78025 -51.27394 15872 ft 330 kts 353°
2026-04-27 19:58 -29.75709 -51.27299 16863 ft 336 kts 352°
2026-04-27 19:58 -29.73353 -51.27204 17908 ft 341 kts 352°
2026-04-27 19:58 -29.70953 -51.27098 18855 ft 348 kts 354°
2026-04-27 19:59 -29.68529 -51.26697 19814 ft 360 kts
2026-04-27 19:59 -29.66075 -51.25868 20664 ft 375 kts
2026-04-27 19:59 -29.63559 -51.24911 20953 ft 397 kts
2026-04-27 19:59 -29.60907 -51.23902 21351 ft 414 kts
2026-04-27 20:00 -29.58142 -51.22840 22165 ft 418 kts
2026-04-27 20:00 -29.55386 -51.21780 23088 ft 420 kts
2026-04-27 20:00 -29.52587 -51.20710 23916 ft 423 kts
2026-04-27 20:00 -29.49799 -51.19647 24670 ft 425 kts
2026-04-27 20:01 -29.46983 -51.18577 25448 ft 427 kts
2026-04-27 20:01 -29.44164 -51.17506 26215 ft 428 kts
2026-04-27 20:01 -29.41287 -51.16413 26892 ft 432 kts
2026-04-27 20:01 -29.38426 -51.15330 27583 ft 434 kts
2026-04-27 20:02 -29.35552 -51.14240 28220 ft 436 kts
2026-04-27 20:02 -29.32618 -51.13128 28854 ft 438 kts
2026-04-27 20:02 -29.29731 -51.12036 29519 ft 442 kts
2026-04-27 20:02 -29.26854 -51.10952 30115 ft 445 kts
2026-04-27 20:03 -29.23845 -51.09821 30583 ft 448 kts
2026-04-27 20:03 -29.20920 -51.08850 31040 ft 440 kts 358°
2026-04-27 20:03 -29.17948 -51.08155 31564 ft 437 kts 356°
2026-04-27 20:03 -29.14964 -51.07473 32238 ft 435 kts 356°
2026-04-27 20:04 -29.12008 -51.06791 32923 ft 432 kts 356°
2026-04-27 20:04 -29.09069 -51.06111 33585 ft 429 kts 356°
2026-04-27 20:04 -29.06153 -51.05440 34176 ft 427 kts 356°
2026-04-27 20:04 -29.03246 -51.04773 34692 ft 426 kts 356°
2026-04-27 20:05 -29.00344 -51.04107 35183 ft 424 kts 356°
2026-04-27 20:05 -28.97463 -51.03446 35632 ft 424 kts 356°
2026-04-27 20:05 -28.94603 -51.02790 36077 ft 423 kts 356°
2026-04-27 20:05 -28.91678 -51.02119 36516 ft 423 kts 356°
2026-04-27 20:06 -28.88794 -51.01458 36874 ft 424 kts 356°
2026-04-27 20:06 -28.85902 -51.00793 36982 ft 422 kts 356°
2026-04-27 20:06 -28.80201 -50.99481 36992 ft 420 kts 356°
2026-04-27 20:07 -28.74481 -50.98171 36993 ft 421 kts 356°
2026-04-27 20:07 -28.68719 -50.96846 36995 ft 420 kts 356°
2026-04-27 20:08 -28.62989 -50.95531 36990 ft 420 kts 356°
2026-04-27 20:08 -28.57248 -50.94214 36999 ft 421 kts 356°
2026-04-27 20:09 -28.51517 -50.92900 36991 ft 421 kts 356°
2026-04-27 20:09 -28.45775 -50.91585 36991 ft 421 kts 357°
2026-04-27 20:10 -28.40040 -50.90273 36992 ft 421 kts 357°
2026-04-27 20:10 -28.34315 -50.88965 36992 ft 421 kts 357°
2026-04-27 20:11 -28.28560 -50.87651 36989 ft 421 kts 357°
2026-04-27 20:11 -28.22812 -50.86341 36987 ft 422 kts 357°
2026-04-27 20:12 -28.18029 -50.85251 36987 ft 422 kts 357°
2026-04-27 20:12 -28.11299 -50.83720 36983 ft 422 kts 357°
2026-04-27 20:13 -28.05539 -50.82207 36983 ft 434 kts
2026-04-27 20:13 -28.02681 -50.80987 36986 ft 446 kts 10°
2026-04-27 20:13 -27.99872 -50.79399 36981 ft 454 kts 14°
2026-04-27 20:14 -27.94313 -50.76029 36985 ft 453 kts 14°
2026-04-27 20:14 -27.88739 -50.72687 36987 ft 453 kts 14°
2026-04-27 20:15 -27.83213 -50.69385 36979 ft 452 kts 14°
2026-04-27 20:15 -27.77625 -50.66051 36979 ft 452 kts 14°
2026-04-27 20:16 -27.72088 -50.62751 36976 ft 451 kts 14°
2026-04-27 20:16 -27.66532 -50.59444 36977 ft 450 kts 14°
2026-04-27 20:17 -27.61000 -50.56153 36974 ft 449 kts 14°
2026-04-27 20:17 -27.56411 -50.53428 36971 ft 449 kts 14°
2026-04-27 20:18 -27.49959 -50.49601 36970 ft 448 kts 14°
2026-04-27 20:18 -27.44440 -50.46329 36966 ft 448 kts 14°
2026-04-27 20:19 -27.39856 -50.43595 36971 ft 448 kts 15°
2026-04-27 20:19 -27.34370 -50.40292 36974 ft 448 kts 15°
2026-04-27 20:20 -27.28876 -50.36994 36966 ft 447 kts 15°
2026-04-27 20:20 -27.23374 -50.33700 36970 ft 447 kts 15°
2026-04-27 20:21 -27.17886 -50.30432 36956 ft 446 kts 15°
2026-04-27 20:21 -27.12407 -50.27200 36969 ft 443 kts 14°
2026-04-27 20:22 -27.06923 -50.23975 36961 ft 445 kts 15°
2026-04-27 20:22 -27.01461 -50.20758 36958 ft 444 kts 15°
2026-04-27 20:23 -26.96006 -50.17549 36947 ft 443 kts 15°
2026-04-27 20:23 -26.90536 -50.14333 36948 ft 443 kts 15°
2026-04-27 20:24 -26.85078 -50.11132 36948 ft 443 kts 15°
2026-04-27 20:24 -26.79602 -50.07920 36945 ft 444 kts 15°
2026-04-27 20:25 -26.74197 -50.04751 36942 ft 441 kts 15°
2026-04-27 20:25 -26.68750 -50.01565 36943 ft 442 kts 15°
2026-04-27 20:26 -26.63313 -49.98388 36948 ft 442 kts 15°
2026-04-27 20:26 -26.57865 -49.95207 36948 ft 441 kts 15°
2026-04-27 20:27 -26.52463 -49.92059 36946 ft 442 kts 15°
2026-04-27 20:27 -26.47017 -49.88884 36950 ft 441 kts 15°
2026-04-27 20:28 -26.41564 -49.85711 36949 ft 442 kts 16°
2026-04-27 20:28 -26.37044 -49.83082 36953 ft 441 kts 16°
2026-04-27 20:29 -26.30642 -49.79362 36955 ft 441 kts 16°
2026-04-27 20:29 -26.25237 -49.76221 36954 ft 441 kts 16°
2026-04-27 20:30 -26.19801 -49.73067 36956 ft 441 kts 16°
2026-04-27 20:30 -26.14372 -49.69919 36958 ft 440 kts 16°
2026-04-27 20:31 -26.08938 -49.66775 36964 ft 440 kts 17°
2026-04-27 20:31 -26.03504 -49.63632 36962 ft 440 kts 17°
2026-04-27 20:32 -25.98113 -49.60516 36961 ft 439 kts 17°
2026-04-27 20:32 -25.92683 -49.57382 36965 ft 439 kts 17°
2026-04-27 20:33 -25.87224 -49.54235 36965 ft 439 kts 17°
2026-04-27 20:33 -25.81807 -49.51113 36964 ft 438 kts 17°
2026-04-27 20:34 -25.76368 -49.47984 36974 ft 438 kts 17°
2026-04-27 20:34 -25.71006 -49.44903 36978 ft 438 kts 17°
2026-04-27 20:35 -25.65582 -49.41792 36989 ft 438 kts 17°
2026-04-27 20:35 -25.60093 -49.38644 36993 ft 438 kts 17°
2026-04-27 20:36 -25.54686 -49.35545 37005 ft 438 kts 18°
2026-04-27 20:36 -25.49279 -49.32454 36993 ft 438 kts 18°
2026-04-27 20:37 -25.43855 -49.29362 36993 ft 439 kts 18°
2026-04-27 20:37 -25.38392 -49.26247 36995 ft 439 kts 18°
2026-04-27 20:38 -25.32958 -49.23145 36995 ft 439 kts 18°
2026-04-27 20:38 -25.27525 -49.20050 36987 ft 440 kts 18°
2026-04-27 20:39 -25.22130 -49.16978 36987 ft 440 kts 18°
2026-04-27 20:39 -25.16685 -49.13882 36969 ft 441 kts 18°
2026-04-27 20:40 -25.11215 -49.10764 36958 ft 442 kts 19°
2026-04-27 20:40 -25.05606 -49.07564 36957 ft 443 kts 19°
2026-04-27 20:41 -25.00166 -49.04465 36953 ft 442 kts 19°
2026-04-27 20:41 -24.94726 -49.01374 36951 ft 443 kts 19°
2026-04-27 20:42 -24.89293 -48.98288 36949 ft 442 kts 19°
2026-04-27 20:42 -24.84082 -48.95334 36944 ft 445 kts 19°
2026-04-27 20:43 -24.79143 -48.92530 36947 ft 445 kts 19°
2026-04-27 20:43 -24.73664 -48.89441 36936 ft 444 kts 19°
2026-04-27 20:44 -24.68124 -48.86329 36947 ft 444 kts 20°
2026-04-27 20:44 -24.62626 -48.83241 36945 ft 444 kts 20°
2026-04-27 20:45 -24.57120 -48.80149 36914 ft 441 kts 20°
2026-04-27 20:45 -24.54415 -48.78626 36643 ft 435 kts 20°
2026-04-27 20:45 -24.51720 -48.77104 36103 ft 434 kts 21°
2026-04-27 20:46 -24.49162 -48.75408 35527 ft 435 kts 25°
2026-04-27 20:46 -24.46576 -48.73615 34948 ft 432 kts 25°
2026-04-27 20:46 -24.44010 -48.71841 34392 ft 429 kts 25°
2026-04-27 20:46 -24.41502 -48.70111 33845 ft 426 kts 25°
2026-04-27 20:47 -24.38999 -48.68386 33242 ft 423 kts 25°
2026-04-27 20:47 -24.36511 -48.66674 32656 ft 420 kts 25°
2026-04-27 20:47 -24.34050 -48.64981 32096 ft 417 kts 25°
2026-04-27 20:47 -24.31605 -48.63300 31539 ft 413 kts 25°
2026-04-27 20:48 -24.29052 -48.61969 30984 ft 398 kts 10°
2026-04-27 20:48 -24.27392 -48.61554 30653 ft 389 kts
2026-04-27 20:48 -24.23871 -48.61768 29911 ft 370 kts 339°
2026-04-27 20:48 -24.21577 -48.62855 29316 ft 359 kts 323°
2026-04-27 20:49 -24.19730 -48.64643 28719 ft 351 kts 307°
2026-04-27 20:49 -24.18390 -48.66839 28156 ft 347 kts 300°
2026-04-27 20:49 -24.17194 -48.69117 27621 ft 344 kts 299°
2026-04-27 20:49 -24.16003 -48.71386 27096 ft 341 kts 299°
2026-04-27 20:50 -24.14829 -48.73616 26594 ft 338 kts 299°
2026-04-27 20:50 -24.13653 -48.75839 26072 ft 336 kts 299°
2026-04-27 20:50 -24.12482 -48.78044 25580 ft 333 kts 299°
2026-04-27 20:50 -24.11340 -48.80191 25082 ft 331 kts 299°
2026-04-27 20:51 -24.10179 -48.82366 24584 ft 329 kts 299°
2026-04-27 20:51 -24.09024 -48.84522 24106 ft 327 kts 299°
2026-04-27 20:51 -24.07781 -48.86598 23603 ft 327 kts 309°
2026-04-27 20:51 -24.05964 -48.88107 23047 ft 333 kts 330°
2026-04-27 20:52 -24.03714 -48.88756 22524 ft 342 kts 351°
2026-04-27 20:52 -24.01325 -48.88437 22016 ft 352 kts 12°
2026-04-27 20:52 -23.99148 -48.87164 21521 ft 363 kts 33°
2026-04-27 20:52 -23.97465 -48.85074 21027 ft 372 kts 55°
2026-04-27 20:53 -23.96504 -48.82469 20569 ft 376 kts 70°
2026-04-27 20:53 -23.95835 -48.79715 20099 ft 375 kts 72°
2026-04-27 20:53 -23.95192 -48.76973 19673 ft 372 kts 72°
2026-04-27 20:53 -23.94548 -48.74242 19241 ft 369 kts 72°
2026-04-27 20:54 -23.93274 -48.68852 18375 ft 364 kts 72°
2026-04-27 20:54 -23.92637 -48.66192 17907 ft 361 kts 72°
2026-04-27 20:54 -23.92206 -48.64410 17589 ft 359 kts 72°
2026-04-27 20:55 -23.91538 -48.61652 17086 ft 356 kts 72°
2026-04-27 20:55 -23.90898 -48.59041 16636 ft 354 kts 72°
2026-04-27 20:55 -23.90253 -48.56427 16189 ft 351 kts 72°
2026-04-27 20:55 -23.89587 -48.53756 15718 ft 349 kts 72°
2026-04-27 20:56 -23.88920 -48.51117 15270 ft 346 kts 72°
2026-04-27 20:56 -23.88275 -48.48591 14848 ft 343 kts 72°
2026-04-27 20:56 -23.87603 -48.45990 14404 ft 341 kts 72°
2026-04-27 20:56 -23.86936 -48.43427 13980 ft 339 kts 72°
2026-04-27 20:57 -23.86284 -48.40955 13536 ft 337 kts 72°
2026-04-27 20:57 -23.85638 -48.38508 13091 ft 334 kts 72°
2026-04-27 20:57 -23.84998 -48.36079 12650 ft 332 kts 72°
2026-04-27 20:57 -23.84363 -48.33674 12211 ft 329 kts 72°
2026-04-27 20:58 -23.83729 -48.31281 11792 ft 326 kts 72°
2026-04-27 20:58 -23.83103 -48.28914 11355 ft 324 kts 72°
2026-04-27 20:58 -23.82480 -48.26579 10937 ft 322 kts 72°
2026-04-27 20:58 -23.81858 -48.24244 10535 ft 319 kts 72°
2026-04-27 20:59 -23.81234 -48.21914 10121 ft 317 kts 72°
2026-04-27 20:59 -23.80618 -48.19616 9699 ft 315 kts 72°
2026-04-27 20:59 -23.80011 -48.17334 9455 ft 306 kts 72°
2026-04-27 20:59 -23.79434 -48.15152 9321 ft 293 kts 72°
2026-04-27 21:00 -23.78876 -48.13046 9033 ft 288 kts 72°
2026-04-27 21:00 -23.78318 -48.10926 8668 ft 287 kts 72°
2026-04-27 21:00 -23.77765 -48.08839 8286 ft 286 kts 71°
2026-04-27 21:00 -23.77222 -48.06751 7961 ft 283 kts 72°
2026-04-27 21:01 -23.76682 -48.04694 7610 ft 281 kts 72°
2026-04-27 21:01 -23.76147 -48.02673 7258 ft 280 kts 71°
2026-04-27 21:01 -23.75616 -48.00641 6936 ft 278 kts 72°
2026-04-27 21:01 -23.75081 -47.98595 6581 ft 277 kts 72°
2026-04-27 21:02 -23.74547 -47.96549 6245 ft 274 kts 72°
2026-04-27 21:02 -23.74020 -47.94559 5910 ft 272 kts 72°
2026-04-27 21:02 -23.73479 -47.92587 5602 ft 269 kts 71°
2026-04-27 21:02 -23.73112 -47.91255 5533 ft 269 kts 71°
2026-04-27 21:03 -23.72565 -47.89264 5502 ft 266 kts 71°
2026-04-27 21:03 -23.72031 -47.87327 5507 ft 272 kts 72°
2026-04-27 21:03 -23.71483 -47.85357 5496 ft 268 kts 71°
2026-04-27 21:03 -23.70951 -47.83404 5501 ft 270 kts 71°
2026-04-27 21:04 -23.70422 -47.81446 5505 ft 269 kts 71°
2026-04-27 21:04 -23.69894 -47.79489 5503 ft 269 kts 71°
2026-04-27 21:04 -23.69364 -47.77509 5500 ft 269 kts 72°
2026-04-27 21:04 -23.68839 -47.75561 5501 ft 269 kts 71°
2026-04-27 21:05 -23.68309 -47.73618 5498 ft 268 kts 71°
2026-04-27 21:05 -23.67782 -47.71661 5504 ft 270 kts 72°
2026-04-27 21:05 -23.67249 -47.69704 5499 ft 269 kts 71°
2026-04-27 21:05 -23.66720 -47.67744 5506 ft 270 kts 72°
2026-04-27 21:06 -23.66188 -47.65784 5506 ft 270 kts 71°
2026-04-27 21:06 -23.65662 -47.63827 5499 ft 269 kts 71°
2026-04-27 21:06 -23.65128 -47.61862 5498 ft 271 kts 71°
2026-04-27 21:06 -23.64594 -47.59902 5502 ft 269 kts 71°
2026-04-27 21:07 -23.64061 -47.57926 5498 ft 269 kts 71°
2026-04-27 21:07 -23.63522 -47.55962 5499 ft 270 kts 71°
2026-04-27 21:07 -23.62983 -47.54013 5497 ft 270 kts 71°
2026-04-27 21:07 -23.62439 -47.52051 5501 ft 270 kts 71°
2026-04-27 21:08 -23.61900 -47.50100 5501 ft 269 kts 71°
2026-04-27 21:08 -23.61367 -47.48170 5498 ft 269 kts 71°
2026-04-27 21:08 -23.60822 -47.46192 5495 ft 270 kts 71°
2026-04-27 21:08 -23.60288 -47.44262 5506 ft 270 kts 71°
2026-04-27 21:09 -23.59749 -47.42306 5506 ft 270 kts 72°
2026-04-27 21:09 -23.59205 -47.40348 5501 ft 269 kts 71°
2026-04-27 21:09 -23.58664 -47.38400 5502 ft 270 kts 71°
2026-04-27 21:09 -23.58120 -47.36447 5508 ft 269 kts 71°
2026-04-27 21:10 -23.57539 -47.34361 5502 ft 268 kts 71°
2026-04-27 21:10 -23.57000 -47.32417 5504 ft 269 kts 71°
2026-04-27 21:10 -23.56462 -47.30473 5508 ft 268 kts 71°
2026-04-27 21:10 -23.55919 -47.28522 5508 ft 268 kts 71°
2026-04-27 21:11 -23.55381 -47.26586 5509 ft 269 kts 71°
2026-04-27 21:11 -23.54844 -47.24661 5510 ft 267 kts 71°
2026-04-27 21:11 -23.54303 -47.22716 5506 ft 269 kts 71°
2026-04-27 21:11 -23.53761 -47.20784 5510 ft 269 kts 71°
2026-04-27 21:12 -23.53220 -47.18840 5505 ft 268 kts 71°
2026-04-27 21:12 -23.52678 -47.16893 5513 ft 269 kts 71°
2026-04-27 21:12 -23.52125 -47.14916 5499 ft 268 kts 71°
2026-04-27 21:12 -23.51560 -47.12889 5513 ft 268 kts 71°
2026-04-27 21:13 -23.51013 -47.10939 5516 ft 269 kts 71°
2026-04-27 21:13 -23.50470 -47.08992 5510 ft 268 kts 71°
2026-04-27 21:13 -23.49935 -47.07080 5510 ft 267 kts 71°
2026-04-27 21:13 -23.49391 -47.05144 5507 ft 267 kts 71°
2026-04-27 21:14 -23.48847 -47.03207 5504 ft 268 kts 71°
2026-04-27 21:14 -23.48299 -47.01262 5509 ft 268 kts 71°
2026-04-27 21:14 -23.47757 -46.99328 5512 ft 266 kts 71°
2026-04-27 21:14 -23.47214 -46.97380 5507 ft 266 kts 71°
2026-04-27 21:15 -23.46681 -46.95453 5518 ft 266 kts 71°
2026-04-27 21:15 -23.46149 -46.93541 5518 ft 267 kts 71°
2026-04-27 21:15 -23.45748 -46.92092 5519 ft 268 kts 71°
2026-04-27 21:15 -23.45178 -46.90054 5522 ft 265 kts 71°
2026-04-27 21:16 -23.44638 -46.88156 5525 ft 269 kts 71°
2026-04-27 21:16 -23.44270 -46.86853 5523 ft 265 kts 71°
2026-04-27 21:16 -23.43725 -46.84933 5524 ft 266 kts 71°
2026-04-27 21:16 -23.43171 -46.82975 5530 ft 268 kts 71°
2026-04-27 21:17 -23.42613 -46.81016 5528 ft 266 kts 71°
2026-04-27 21:17 -23.42074 -46.79107 5531 ft 265 kts 71°
2026-04-27 21:17 -23.41536 -46.77181 5529 ft 266 kts 71°
2026-04-27 21:17 -23.40992 -46.75256 5533 ft 264 kts 71°
2026-04-27 21:18 -23.40456 -46.73350 5530 ft 264 kts 71°
2026-04-27 21:18 -23.39906 -46.71410 5540 ft 263 kts 71°
2026-04-27 21:18 -23.39363 -46.69499 5537 ft 265 kts 71°
2026-04-27 21:18 -23.38830 -46.67616 5530 ft 262 kts 71°
2026-04-27 21:19 -23.38244 -46.65762 5538 ft 260 kts 60°
2026-04-27 21:19 -23.37056 -46.64287 5537 ft 258 kts 31°
2026-04-27 21:19 -23.35427 -46.63541 5530 ft 255 kts 14°
2026-04-27 21:20 -23.31985 -46.63053 5528 ft 250 kts 347°
2026-04-27 21:20 -23.30396 -46.63635 5527 ft 245 kts 331°
2026-04-27 21:20 -23.28900 -46.64537 5515 ft 245 kts 328°
2026-04-27 21:20 -23.27423 -46.65508 5393 ft 243 kts 324°
2026-04-27 21:21 -23.26063 -46.66600 5144 ft 243 kts 320°
2026-04-27 21:21 -23.24748 -46.67766 5032 ft 246 kts 319°
2026-04-27 21:21 -23.23429 -46.68961 5009 ft 246 kts 319°
2026-04-27 21:21 -23.22122 -46.70139 5009 ft 245 kts 319°
2026-04-27 21:22 -23.20798 -46.71316 5003 ft 246 kts 320°
2026-04-27 21:22 -23.19482 -46.72476 4998 ft 245 kts 320°
2026-04-27 21:22 -23.18135 -46.73656 5001 ft 245 kts 320°
2026-04-27 21:22 -23.16817 -46.74811 4997 ft 246 kts 320°
2026-04-27 21:23 -23.15481 -46.75985 4998 ft 246 kts 320°
2026-04-27 21:23 -23.14164 -46.77140 4999 ft 246 kts 320°
2026-04-27 21:23 -23.12839 -46.78303 4998 ft 245 kts 319°
2026-04-27 21:23 -23.11592 -46.79399 4997 ft 245 kts 319°
2026-04-27 21:24 -23.10270 -46.80563 4997 ft 244 kts 319°
2026-04-27 21:24 -23.08930 -46.81741 5002 ft 245 kts 320°
2026-04-27 21:24 -23.07621 -46.82889 5003 ft 245 kts 320°
2026-04-27 21:24 -23.06287 -46.84059 5007 ft 246 kts 320°
2026-04-27 21:25 -23.04836 -46.85332 5009 ft 246 kts 320°
2026-04-27 21:25 -23.03648 -46.86475 5012 ft 244 kts 309°
2026-04-27 21:25 -23.02850 -46.88071 5008 ft 244 kts 285°
2026-04-27 21:25 -23.02550 -46.89880 5012 ft 242 kts 279°
2026-04-27 21:26 -23.02276 -46.91695 5026 ft 245 kts 279°
2026-04-27 21:26 -23.01913 -46.93513 5019 ft 245 kts 289°
2026-04-27 21:26 -23.01082 -46.95231 5024 ft 244 kts 306°
2026-04-27 21:26 -23.00056 -46.96616 5027 ft 246 kts 308°
2026-04-27 21:27 -22.99026 -46.98010 5014 ft 244 kts 307°
2026-04-27 21:27 -22.97975 -46.99450 4912 ft 229 kts 307°
2026-04-27 21:27 -22.97017 -47.00767 4766 ft 216 kts 307°
2026-04-27 21:27 -22.96100 -47.02030 4438 ft 213 kts 306°
2026-04-27 21:28 -22.95188 -47.03288 4133 ft 209 kts 306°
2026-04-27 21:28 -22.94287 -47.04534 4034 ft 212 kts 306°
2026-04-27 21:28 -22.93368 -47.05805 4028 ft 214 kts 306°
2026-04-27 21:28 -22.92609 -47.07104 4017 ft 210 kts 294°
2026-04-27 21:29 -22.92088 -47.08601 3851 ft 210 kts 285°
2026-04-27 21:29 -22.91642 -47.10134 3594 ft 208 kts 286°
2026-04-27 21:29 -22.91194 -47.11647 3205 ft 212 kts 286°
2026-04-27 21:29 -22.90746 -47.13126 3056 ft 203 kts 286°
2026-04-27 21:30 -22.90289 -47.14632 3045 ft 208 kts 286°
2026-04-27 21:30 -22.89843 -47.16111 3029 ft 208 kts 287°
2026-04-27 21:30 -22.89387 -47.17611 3031 ft 210 kts 286°
2026-04-27 21:30 -22.88935 -47.19112 3027 ft 206 kts 287°
2026-04-27 21:31 -22.88477 -47.20619 3030 ft 213 kts 286°
2026-04-27 21:31 -22.88036 -47.22076 3013 ft 203 kts 286°
2026-04-27 21:31 -22.87597 -47.23530 3031 ft 200 kts 287°
2026-04-27 21:31 -22.87336 -47.24957 3010 ft 193 kts 265°
2026-04-27 21:32 -22.87801 -47.26294 3015 ft 196 kts 232°
2026-04-27 21:32 -22.88895 -47.27041 3017 ft 183 kts 190°
2026-04-27 21:32 -22.90095 -47.26681 3024 ft 187 kts 147°
2026-04-27 21:32 -22.91095 -47.25737 3024 ft 190 kts 138°
2026-04-27 21:33 -22.92021 -47.24728 3019 ft 188 kts 136°
2026-04-27 21:33 -22.92917 -47.23697 3034 ft 189 kts 135°
2026-04-27 21:33 -22.93810 -47.22636 3033 ft 190 kts 134°
2026-04-27 21:33 -22.94669 -47.21583 3038 ft 189 kts 134°
2026-04-27 21:34 -22.95532 -47.20501 3031 ft 190 kts 133°
2026-04-27 21:34 -22.96386 -47.19398 3040 ft 191 kts 132°
2026-04-27 21:34 -22.97237 -47.18275 3028 ft 192 kts 131°
2026-04-27 21:34 -22.98029 -47.17196 2750 ft 170 kts 131°
2026-04-27 21:35 -22.98718 -47.16202 2532 ft 153 kts 130°
2026-04-27 21:35 -22.99354 -47.15356 2407 ft 143 kts 130°
2026-04-27 21:35 -22.99950 -47.14527 2254 ft 134 kts 130°
2026-04-27 21:35 -23.00509 -47.13767 2168 ft 120 kts 132°
2026-04-27 21:36 -23.00900 -47.13229 2165 ft 62 kts 128°
2026-04-27 21:36 -23.01084 -47.12972 2165 ft 39 kts 133°
2026-04-27 21:36 -23.01260 -47.12834 2159 ft 0 kts 157°
2026-04-27 21:37 -23.01262 -47.12833 2159 ft 3 kts 157°
2026-04-27 21:37 -23.01316 -47.12809 2159 ft 13 kts 158°
2026-04-27 21:37 -23.01385 -47.12816 2159 ft 6 kts 246°
2026-04-27 21:37 -23.01369 -47.12889 2164 ft 14 kts 302°
2026-04-27 21:38 -23.01300 -47.12999 2164 ft 21 kts 306°
2026-04-27 21:38 -23.01201 -47.13128 2167 ft 23 kts 309°
2026-04-27 21:38 -23.01094 -47.13279 2168 ft 27 kts 309°
2026-04-27 21:38 -23.00969 -47.13454 2166 ft 31 kts 306°
2026-04-27 21:39 -23.00876 -47.13581 2166 ft 33 kts 310°
2026-04-27 21:39 -23.00729 -47.13789 2166 ft 36 kts 306°
2026-04-27 21:39 -23.00570 -47.14007 2167 ft 38 kts 308°
2026-04-27 21:39 -23.00401 -47.14243 2167 ft 40 kts 308°
2026-04-27 21:40 -23.00230 -47.14475 2161 ft 40 kts 307°
2026-04-27 21:40 -23.00081 -47.14689 2162 ft 23 kts 306°
2026-04-27 21:40 -23.00010 -47.14821 2165 ft 7 kts 255°
2026-04-27 21:40 -23.00054 -47.14893 2165 ft 16 kts 227°
2026-04-27 21:41 -23.00152 -47.14978 2162 ft 20 kts 212°
2026-04-27 21:41 -23.00220 -47.14958 2168 ft 12 kts 137°
2026-04-27 21:41 -23.00308 -47.14946 2168 ft 10 kts 212°
2026-04-27 21:41 -23.00330 -47.14966 2162 ft 0 kts 221°